Weather History for Fort Polk, LA

Change the Weather History Date:

Wednesday, October 31, 2012

  Actual Average (KPOE) Record (KPOE)
Temperature  
Mean Temperature 65 °F -  
Max Temperature 80 °F 71 °F 84 °F (2003)
Min Temperature 50 °F 51 °F 41 °F (2011)
Growing Degree Days 15 (Base 50)    
Moisture  
Dew Point 54 °F    
Average Humidity 71    
Maximum Humidity 93    
Minimum Humidity 39    
Precipitation  
Precipitation 0.00 in - - ()
Sea Level Pressure  
Sea Level Pressure 30.00 in    
Wind  
Wind Speed 3 mph (WSW)    
Max Wind Speed 12 mph    
Max Gust Speed 20 mph    
Visibility 10 miles    
Events      
Averages and records for this station are not official NWS values.
T = Trace of Precipitation, MM = Missing Value Source: NWS Daily Summary

Daily Weather History Graph

Daily Weather History Graph

Search for Another Location

Airport:

Trip Planner

Search our weather history database for the weather conditions in past years. The results will help you decide how hot, cold, wet, or windy it might be!

Date:

Astronomy

Oct. 31, 2012 Rise Set
Actual Time 7:27 AM CDT 6:24 PM CDT
Civil Twilight 7:02 AM CDT 6:49 PM CDT
Nautical Twilight 6:34 AM CDT 7:17 PM CDT
Astronomical Twilight 6:05 AM CDT 7:46 PM CDT
Moon 7:43 PM CDT (10/31) 9:02 AM CDT (10/31)
Length of Visible Light 11h 46m
Length of Day
10h 56m
Full, 97% of the Moon is Illuminated
Oct 31
Full
Nov 6
Last Quarter
Nov 13
New
Nov 20
First Quarter
Nov 28
Full

Hourly Weather History & Observations

Time (CDT) Temp. Heat Index Dew Point Humidity Pressure Visibility Wind Dir Wind Speed Gust Speed Precip Events Conditions
12:53 AM 50.0 °F - 46.0 °F 86% 30.02 in 10.0 mi Calm Calm - N/A   Clear
1:53 AM 51.1 °F - 46.9 °F 86% 30.02 in 10.0 mi Calm Calm - N/A   Clear
2:53 AM 52.0 °F - 48.0 °F 86% 30.02 in 10.0 mi Calm Calm - N/A   Clear
3:53 AM 52.0 °F - 48.9 °F 89% 30.01 in 10.0 mi Calm Calm - N/A   Clear
4:53 AM 54.0 °F - 51.1 °F 90% 30.00 in 10.0 mi SW 3.5 mph - N/A   Clear
5:53 AM 57.0 °F - 52.0 °F 83% 30.01 in 10.0 mi WSW 4.6 mph - N/A   Clear
6:53 AM 57.9 °F - 53.1 °F 84% 30.02 in 10.0 mi WSW 5.8 mph - N/A   Clear
7:53 AM 57.0 °F - 53.1 °F 87% 30.03 in 10.0 mi Variable 3.5 mph - N/A   Clear
8:53 AM 62.1 °F - 55.0 °F 78% 30.04 in 10.0 mi WSW 5.8 mph - N/A   Clear
9:53 AM 66.0 °F - 55.9 °F 70% 30.04 in 10.0 mi WSW 10.4 mph - N/A   Clear
10:53 AM 70.0 °F - 57.9 °F 65% 30.04 in 10.0 mi West 9.2 mph 17.3 mph N/A   Clear
11:53 AM 73.9 °F - 57.0 °F 55% 30.03 in 10.0 mi WSW 11.5 mph - N/A   Clear
12:53 PM 77.0 °F - 57.9 °F 52% 30.00 in 10.0 mi West 5.8 mph - N/A   Clear
1:53 PM 79.0 °F - 55.9 °F 45% 29.96 in 10.0 mi WSW 5.8 mph 19.6 mph N/A   Scattered Clouds
2:53 PM 80.1 °F 79.9 °F 53.1 °F 39% 29.94 in 10.0 mi WSW 8.1 mph 17.3 mph N/A   Partly Cloudy
3:53 PM 79.0 °F - 54.0 °F 42% 29.93 in 10.0 mi West 9.2 mph - N/A   Partly Cloudy
4:53 PM 80.1 °F 80.2 °F 55.9 °F 43% 29.93 in 10.0 mi Variable 6.9 mph - N/A   Partly Cloudy
5:53 PM 77.0 °F - 57.9 °F 52% 29.94 in 10.0 mi NW 6.9 mph - N/A   Partly Cloudy
6:53 PM 72.0 °F - 57.9 °F 61% 29.95 in 10.0 mi Calm Calm - N/A   Clear
7:53 PM 66.0 °F - 57.9 °F 75% 29.97 in 10.0 mi Calm Calm - N/A   Clear
8:53 PM 64.0 °F - 59.0 °F 84% 29.98 in 9.0 mi Calm Calm - N/A   Clear
9:53 PM 61.0 °F - 57.0 °F 87% 30.00 in 10.0 mi North 4.6 mph - N/A   Clear
10:53 PM 63.0 °F - 57.0 °F 81% 30.01 in 10.0 mi Calm Calm - N/A   Clear
11:53 PM 57.9 °F - 55.9 °F 93% 30.01 in 10.0 mi Calm Calm - N/A   Clear